Location: Bogis-Bossey
(46.3500°N, 6.1667°E)
Time: 18:43:54
(UTC+00:00)

Cosmos 1464 Rocket - Pass Details

Date: 17 August 2022
Orbit: 951 x 1002 km, 82.9° (Epoch: 01 October)

Event Time Altitude Azimuth Distance (km) Brightness Sun altitude
Rises 21:19:22 0° 354° (N) 3,718 8.0 -22.7°
Reaches altitude 10° 21:21:58 10° 358° (N) 2,758 7.1 -22.9°
Maximum altitude 21:28:13 59° 78° (ENE) 1,125 4.1 -23.6°
Enters shadow 21:29:34 49° 124° (ESE) 1,249 4.1 -23.7°
